Regional Weather Roundup
Issued by NWS

Home | Current Version | Previous Version | Graphics & Text | Print | Product List | Glossary On
Versions: 1 2 3 4 5 6 7 8 9 10 11 12 13 14 15 16 17 18 19 20 21 22 23 24 25 26 27 28 29 30 31 32 33 34 35 36 37 38 39 40 41 42 43 44 45 46 47 48 49 50
000
ASUS43 KLOT 240708
RWRIL

ILLINOIS REGIONAL WEATHER ROUNDUP
NATIONAL WEATHER SERVICE CHICAGO/ROMEOVILLE IL
200 AM CDT SUN MAY 24 2015

NOTE: "FAIR" INDICATES FEW OR NO CLOUDS BELOW 12,000 FEET WITH NO
SIGNIFICANT WEATHER AND/OR OBSTRUCTIONS TO VISIBILITY.

* THESE STATIONS ARE NOT UNDER NWS QUALITY CONTROL. THEY ALSO MAY NOT
  REPORT WEATHER SUCH AS PRECIPITATION OR FOG.

ILZ001-002-007-009-015-016-024-240800-
NORTHWEST ILLINOIS

CITY           SKY/WX    TMP DP  RH WIND       PRES   REMARKS
MOLINE         CLOUDY    66  50  56 SE5       30.14S
STERLING*      CLOUDY    66  48  52 SE3       30.16S
SAVANNA*       CLOUDY    60  53  76 CALM      30.15R
$$

ILZ003-004-008-010-011-017-018-240800-
NORTH CENTRAL ILLINOIS

CITY           SKY/WX    TMP DP  RH WIND       PRES   REMARKS
ROCKFORD       CLOUDY    60  50  69 SE6       30.18F
FREEPORT*      CLOUDY    58  49  72 S5        30.18S
ROCHELLE*      CLOUDY    62  49  64 SE7       30.18S
DE KALB*       CLOUDY    60  47  64 SE6       30.19S
PERU*          CLOUDY    66  49  53 SE8       30.17S
$$

ILZ005-006-012>014-019>023-240800-
NORTHEAST ILLINOIS

CITY           SKY/WX    TMP DP  RH WIND       PRES   REMARKS
CHICAGO-OHARE  PTCLDY    61  46  57 S6        30.18F
CHICAGO-MIDWAY PTCLDY    67  46  47 S3        30.19S
AURORA         MOCLDY    62  47  57 SE5       30.18F
LANSING*       PTCLDY    60  44  55 CALM      30.20S
JOLIET*        MOCLDY    60  52  73 CALM      30.19S
WAUKEGAN       PTCLDY    58  45  62 SW7       30.18S
DUPAGE AIRPORT MOCLDY    61  48  62 SE5       30.18S
KANKAKEE*      MOCLDY    57  50  78 SE3       30.20S
WHEELING       PTCLDY    56  47  71 CALM      30.20S
MORRIS*        MOCLDY    63  48  57 SE5       30.16S
ROMEOVILLE*    MOCLDY    61  46  57 SE5       30.18F
NORTHERLY ISL    N/A     69  42  37 SW8         N/A
$$

LMZ740>746-240800-
SOUTHERN LAKE MICHIGAN

STATION/POSITION SKY/WX   TEMP    WIND        PRES    VSBY  WAVE
                          AIR SEA DIR/SP/G                  HT/PER
                          (F)     (DEG/KT/KT) (MB)    (MI)  (FT/S)
SOUTHERN BUOY              47 38  160/  8/  8 1022.9F
HARRISON CRIB              69     190/  8/  9   N/A
BURNHAM HARBOR             68     220/  5/  7   N/A
CALUMET HARBOR             67     180/  4/  5   N/A
BURNS HARBOR               67     180/  7/ 10 1023.0F
MICHIGAN CITY              66     130/  9/ 10   N/A
MICHIGAN CITY 6N           62 54  190/  4/  6   N/A           0
ST. JOSEPH                 61 56  200/  8/  8   N/A           1
$$

ILZ025>027-034>036-040-047-049-050-058-095>099-240800-
WEST-CENTRAL ILLINOIS

CITY           SKY/WX    TMP DP  RH WIND       PRES   REMARKS
QUINCY         CLOUDY    67  51  56 SE6       30.12S
GALESBURG*     CLOUDY    66  51  59 SE3       30.14F
MACOMB*        CLOUDY    67  51  56 SE5       30.17R
JACKSONVILLE*  CLOUDY    68  52  56 SE6       30.15R
PITTSFIELD*    CLOUDY    66  53  63 SE5       30.14F
$$

ILZ028>032-037-038-041>044-048-051>054-059>061-240800-
CENTRAL ILLINOIS

CITY           SKY/WX    TMP DP  RH WIND       PRES   REMARKS
PONTIAC        MOCLDY    64  52  64 SE7       30.19S
BLOOMINGTON    CLOUDY    65  52  62 S8        30.19S
DECATUR        CLOUDY    66  50  56 SE5       30.17S
PEORIA         CLOUDY    70  50  49 SE6       30.16S
LACON*         CLOUDY    66  50  56 SE7       30.16R
LINCOLN*       CLOUDY    69  49  49 SE6       30.14F
SPRINGFIELD    CLOUDY    70  50  49 SE13      30.15F
TAYLORVILLE    CLOUDY    64  50  59 SE6       30.16S
$$

ILZ033-039-045-046-055>057-062-063-240800-
EAST-CENTRAL ILLINOIS

CITY           SKY/WX    TMP DP  RH WIND       PRES   REMARKS
CHAMPAIGN      CLOUDY    65  51  60 SE6       30.18F
DANVILLE*      MOCLDY    63  49  60 SE6       30.17F
RANTOUL*       CLOUDY    67  51  58 S3        30.19S
MATTOON        CLOUDY    63  50  62 SE5       30.17F
PARIS*         CLOUDY    64  50  60 SE3       30.20S
$$

ILZ079-100>102-240800-
SOUTHWEST ILLINOIS

CITY           SKY/WX    TMP DP  RH WIND       PRES   REMARKS
ALTON          CLOUDY    65  56  71 E5        30.13F
BELLEVILLE     CLOUDY    64  56  74 E3        30.12F
CAHOKIA*       CLOUDY    67  55  65 SE6       30.12S
SPARTA*        CLOUDY    65  55  70 SE8       30.13F
$$

ILZ064>066-069>071-074>076-080>082-084>086-088>090-092>094-240800-
SOUTH-CENTRAL ILLINOIS

CITY           SKY/WX    TMP DP  RH WIND       PRES   REMARKS
CARBONDALE     MOCLDY    63  54  72 SE6       30.14F
CAIRO*         PTCLDY    64  56  77 CALM      30.14F
EFFINGHAM*     MOCLDY    60  51  71 CALM      30.19S
MARION         PTCLDY    64  55  72 SE5       30.16S
MT. VERNON     MOCLDY    66  50  55 SE3       30.16F
CENTRALIA*     MOCLDY    64  51  63 CALM      30.16S
SALEM*         MOCLDY    67  52  57 E3        30.16F
METROPOLIS*    CLEAR     64  57  77 CALM      30.15S
$$

ILZ067-068-072-073-078-083-087-091-240800-
SOUTHEAST ILLINOIS

CITY           SKY/WX    TMP DP  RH WIND       PRES   REMARKS
LAWRENCEVILLE  MOCLDY    62  53  72 E7        30.19S
FLORA*         MOCLDY    62  53  71 SE7       30.18S
FAIRFIELD*     PTCLDY    64  53  67 E5        30.17R
HARRISBURG*    PTCLDY    62  56  81 CALM      30.17S
ROBINSON*      MOCLDY    63  53  69 SE6       30.20F
CARMI*         PTCLDY    63  52  67 CALM      30.18R
$$

ABBREVIATIONS USED IN REMARKS
   TC - TEMPERATURE IN CELSIUS
  WCI - WIND CHILL INDEX
   HX - HEAT INDEX
  VSB - VISIBILITY
$$



USA.gov is the U.S. government's official web portal to all federal, state and local government web resources and services.